Meath Environmental Platform

Observations for Trim Market St

Time AQI Temp °C Hum % Pres Pa CO μg/m³ H₂S μg/m³ NO μg/m³ NO₂ μg/m³ O₃ μg/m³ SO₂ μg/m³ PM1 μg/m³ PM2.5 μg/m³ PM10 μg/m³
Saturday 11 July 2026
19:43 1 26.9 53 57,607 0 0 0 8.67 17.84 0 6.41 8.95 11.89
19:40 1 26.9 53 57,513 0 0 0 7.6 18.15 0 7.13 10.49 14.08
19:36 1 27 53 57,298 0 0.15 0 12.8 8.82 0 6.41 9.49 13.37
19:33 1 27.1 52 57,198 0 0 0 7.1 15.19 0 5.7 8.48 13.38
19:32 1 27.2 52 57,155 0 0 0 9.88 25.64 0 7.13 9.51 13.38
19:31 1 27.2 52 57,081 0 0 0 8.09 16.48 0 6.41 9.52 13.39
19:30 1 27.3 52 57,039 0 0 0 10.78 22.14 0 5.7 7.99 11.93
19:29 1 27.3 52 57,003 0 0 0 4.89 7.74 0 6.41 9.53 14.86
19:28 1 27.3 52 56,975 0 0 0 8.5 21.69 0 4.28 7.49 10.46
19:27 1 27.3 52 56,936 0 0 0 8.8 12.62 0 8.55 11.07 17.07
19:26 1 27.3 52 56,924 0 0 0 9.41 16.97 0 4.99 7.5 9.73
19:25 1 27.4 52 56,885 0.38 0 0 9.09 8.3 0 4.99 7.5 11.94
19:24 1 27.4 52 56,855 0 0 0 9 19.26 0 5.7 8.53 11.21
19:23 1 27.4 52 56,867 0 0 0 13.1 12.73 0 5.7 9.04 11.94
19:22 1 27.4 52 56,862 0 0 0 14.11 13.01 0 5.7 9.04 13.42
19:21 1 27.4 52 56,857 0 0 0 7.41 7.49 0 6.41 9.04 12.68
19:20 1 27.5 52 56,857 0 0 0 8.29 18.86 0 6.41 8.54 11.21
19:18 1 27.5 51 56,848 0 0 0 7.81 13.65 0 7.84 9.06 14.16
19:16 1 27.5 51 56,752 0 0 0 9.22 18.44 0 5.7 10.6 14.17
19:14 1 27.6 51 56,581 0 0 0 9.21 22.67 0 7.13 10.61 14.18